Weather in Kosachevo

Russia / Ivanovo Oblast     57°18′28″N   41°56′35″E
temp.,
°C
wind,
m/s
gust,
m/s
humid.,
%
clouds,
%
prec.,
mm/h
press.,
hPa
HPBL,
m
13 may, thu
thu1300:00+15se258272 0.0 102289
03:00+13se368614 0.0 1022118
06:00+14se268260 0.0 1021191
09:00+19se47680 0.0 1021852
12:00+21se686246 0.3 10191514
15:00+22ese7116290 1.3 10171206
18:00+19se7127699 2.2 1016828
21:00+14wnw259699 11.1 1016297
14 may, fri
fri1400:00+12ese11920 0.4 101710
03:00+11ssw11931 0.4 101810
06:00+13s24901 0.0 1018115
09:00+18s3575100 0.0 1019601
12:00+20s4661100 0.0 10191342
15:00+21s465936 0.2 10181489
18:00+20sse3569100 0.2 1017180
21:00+16se3785100 0.3 1017115
15 may, sat
sat1500:00+15ese41086100 0.1 1015200
03:00+14ese3996100 1.8 1014204
06:00+16se3895100 0.0 1013208
09:00+21ese247828 0.0 1012377
12:00+24sse696181 0.0 10111346
15:00+24sw6969100 1.2 10101272
18:00+19s4138688 4.1 1010872
21:00+17ssw513908 4.9 1011480
16 may, sun
sun1600:00+15s512952 0.0 1011511
03:00+13ssw511950 0.0 1012442
06:00+13ssw4119429 0.0 1013415
09:00+17sw5977100 0.0 1014705
12:00+20sw576251 0.0 10151314
15:00+22sw58535 0.0 10141977
18:00+21sw376628 0.1 1014481
21:00+14wsw34875 0.7 101556
17 may, mon
mon1700:00+13sw2391100 0.0 101656
03:00+12sw22940 0.0 101727
06:00+14sw1289100 0.0 101794
09:00+19ssw126948 0.0 1018515
12:00+21ssw2257100 0.0 10171141
15:00+23s1251100 0.0 10171333
18:00+22ese236559 0.0 1016128
21:00+16ese368486 0.2 101693